JBU285 TJPS-MDPC

Flight info

Callsign JBU285
Flight time 0h 32m
Altitude 16000
Route ANTEX ANTEX2B
Aircraft A320/M-SDE3FGHIRWY/LB1

Departure

Time 2026-04-16 23:29
Airport Mercedita International Airport (TJPS)

Arrival

Time 2026-04-17 00:01
Airport Punta Cana International Airport (MDPC)
Time Latitude Longitude Altitude Speed Heading
2026-04-16 23:29 17.99287 -66.50354 1947 ft 211 kts 94°
2026-04-16 23:29 17.99320 -66.48727 2333 ft 235 kts 83°
2026-04-16 23:29 17.99670 -66.46979 2906 ft 251 kts 76°
2026-04-16 23:29 17.99738 -66.45140 3731 ft 257 kts 103°
2026-04-16 23:30 17.98942 -66.43464 4591 ft 261 kts 132°
2026-04-16 23:30 17.97459 -66.42382 5459 ft 264 kts 160°
2026-04-16 23:30 17.95648 -66.42029 6329 ft 266 kts 175°
2026-04-16 23:30 17.93784 -66.41891 7046 ft 270 kts 180°
2026-04-16 23:31 17.91952 -66.42299 7866 ft 273 kts 207°
2026-04-16 23:31 17.90488 -66.43556 8650 ft 276 kts 234°
2026-04-16 23:31 17.89722 -66.45399 9415 ft 279 kts 261°
2026-04-16 23:31 17.89834 -66.47426 10147 ft 283 kts 287°
2026-04-16 23:32 17.90592 -66.49391 10398 ft 306 kts 295°
2026-04-16 23:32 17.91558 -66.51474 10641 ft 326 kts 296°
2026-04-16 23:32 17.92578 -66.53632 11237 ft 333 kts 296°
2026-04-16 23:32 17.93614 -66.55819 11914 ft 336 kts 296°
2026-04-16 23:33 17.94662 -66.58026 12574 ft 340 kts 296°
2026-04-16 23:33 17.95723 -66.60257 13231 ft 343 kts 296°
2026-04-16 23:33 17.96794 -66.62508 13871 ft 346 kts 296°
2026-04-16 23:33 17.97876 -66.64780 14489 ft 349 kts 296°
2026-04-16 23:34 17.98969 -66.67074 15093 ft 353 kts 296°
2026-04-16 23:34 17.99697 -66.68602 15476 ft 355 kts 296°
2026-04-16 23:34 18.00808 -66.70931 15894 ft 358 kts 296°
2026-04-16 23:34 18.02233 -66.74054 16010 ft 358 kts 293°
2026-04-16 23:35 18.03177 -66.76474 16016 ft 358 kts 291°
2026-04-16 23:35 18.04079 -66.78910 16016 ft 358 kts 291°
2026-04-16 23:35 18.04957 -66.81354 16016 ft 358 kts 290°
2026-04-16 23:35 18.05532 -66.82975 16016 ft 357 kts 290°
2026-04-16 23:36 18.06700 -66.86249 16016 ft 358 kts 290°
2026-04-16 23:36 18.07283 -66.87870 16016 ft 358 kts 291°
2026-04-16 23:36 18.08172 -66.90315 16016 ft 358 kts 291°
2026-04-16 23:36 18.09069 -66.92758 16016 ft 359 kts 291°
2026-04-16 23:37 18.09968 -66.95199 16016 ft 358 kts 291°
2026-04-16 23:37 18.11157 -66.98434 16016 ft 358 kts 291°
2026-04-16 23:37 18.12052 -67.00877 16016 ft 359 kts 291°
2026-04-16 23:37 18.12948 -67.03323 16016 ft 358 kts 291°
2026-04-16 23:38 18.13841 -67.05765 16016 ft 358 kts 291°
2026-04-16 23:38 18.14430 -67.07383 16016 ft 358 kts 291°
2026-04-16 23:38 18.15318 -67.09828 16016 ft 358 kts 291°
2026-04-16 23:38 18.16204 -67.12266 16016 ft 358 kts 291°
2026-04-16 23:39 18.17095 -67.14709 16016 ft 357 kts 291°
2026-04-16 23:39 18.17984 -67.17147 16016 ft 357 kts 291°
2026-04-16 23:39 18.18873 -67.19585 16016 ft 357 kts 291°
2026-04-16 23:39 18.19762 -67.22025 16016 ft 357 kts 291°
2026-04-16 23:40 18.20649 -67.24463 16016 ft 357 kts 291°
2026-04-16 23:40 18.21535 -67.26903 16016 ft 357 kts 291°
2026-04-16 23:40 18.22408 -67.29309 16016 ft 357 kts 291°
2026-04-16 23:40 18.23295 -67.31751 16016 ft 357 kts 291°
2026-04-16 23:41 18.24179 -67.34190 16016 ft 357 kts 291°
2026-04-16 23:41 18.25063 -67.36631 16016 ft 357 kts 291°
2026-04-16 23:41 18.25948 -67.39071 16016 ft 357 kts 291°
2026-04-16 23:41 18.26836 -67.41511 16016 ft 357 kts 291°
2026-04-16 23:42 18.27723 -67.43948 16016 ft 357 kts 291°
2026-04-16 23:42 18.28608 -67.46389 16016 ft 357 kts 291°
2026-04-16 23:42 18.29492 -67.48829 16016 ft 357 kts 291°
2026-04-16 23:42 18.30374 -67.51269 16016 ft 357 kts 291°
2026-04-16 23:43 18.31244 -67.53678 16016 ft 357 kts 291°
2026-04-16 23:43 18.32124 -67.56119 16016 ft 357 kts 291°
2026-04-16 23:43 18.33006 -67.58562 16016 ft 357 kts 291°
2026-04-16 23:43 18.33888 -67.61002 16015 ft 357 kts 291°
2026-04-16 23:44 18.34778 -67.63468 15576 ft 361 kts 291°
2026-04-16 23:44 18.35666 -67.65933 15074 ft 359 kts 291°
2026-04-16 23:44 18.36549 -67.68377 14574 ft 356 kts 291°
2026-04-16 23:44 18.37428 -67.70807 14073 ft 354 kts 291°
2026-04-16 23:45 18.38299 -67.73219 13580 ft 351 kts 291°
2026-04-16 23:45 18.39163 -67.75614 13068 ft 349 kts 291°
2026-04-16 23:45 18.40020 -67.77993 12570 ft 346 kts 291°
2026-04-16 23:45 18.40870 -67.80353 12069 ft 344 kts 291°
2026-04-16 23:46 18.41715 -67.82699 11567 ft 341 kts 291°
2026-04-16 23:46 18.42552 -67.85021 11068 ft 338 kts 290°
2026-04-16 23:46 18.43379 -67.87325 10560 ft 335 kts 290°
2026-04-16 23:46 18.44188 -67.89578 10078 ft 332 kts 291°
2026-04-16 23:47 18.45003 -67.91838 9564 ft 325 kts 291°
2026-04-16 23:47 18.45784 -67.94012 9066 ft 310 kts 290°
2026-04-16 23:47 18.46532 -67.96097 8562 ft 299 kts 290°
2026-04-16 23:47 18.47252 -67.98107 8116 ft 287 kts 290°
2026-04-16 23:48 18.48012 -67.99961 8005 ft 264 kts 300°
2026-04-16 23:48 18.49011 -68.01512 8013 ft 253 kts 307°
2026-04-16 23:48 18.50073 -68.02987 8015 ft 253 kts 307°
2026-04-16 23:48 18.51118 -68.04444 8016 ft 253 kts 307°
2026-04-16 23:49 18.52179 -68.05927 8016 ft 253 kts 307°
2026-04-16 23:49 18.53235 -68.07403 8016 ft 252 kts 307°
2026-04-16 23:49 18.54292 -68.08881 8016 ft 252 kts 307°
2026-04-16 23:49 18.55347 -68.10354 8016 ft 252 kts 307°
2026-04-16 23:50 18.56402 -68.11830 8016 ft 252 kts 307°
2026-04-16 23:50 18.57458 -68.13309 8016 ft 252 kts 307°
2026-04-16 23:50 18.58511 -68.14786 8016 ft 252 kts 307°
2026-04-16 23:50 18.59566 -68.16264 8016 ft 252 kts 307°
2026-04-16 23:51 18.60605 -68.17722 8016 ft 252 kts 307°
2026-04-16 23:51 18.61660 -68.19201 8016 ft 252 kts 307°
2026-04-16 23:51 18.62716 -68.20678 8016 ft 252 kts 307°
2026-04-16 23:51 18.63773 -68.22158 8016 ft 252 kts 307°
2026-04-16 23:52 18.64827 -68.23635 8016 ft 252 kts 307°
2026-04-16 23:52 18.65872 -68.25122 8016 ft 252 kts 306°
2026-04-16 23:52 18.66909 -68.26614 8016 ft 252 kts 306°
2026-04-16 23:52 18.67944 -68.28108 8016 ft 252 kts 306°
2026-04-16 23:53 18.68956 -68.29570 8013 ft 246 kts 306°
2026-04-16 23:53 18.69756 -68.31093 8013 ft 231 kts 288°
2026-04-16 23:53 18.70003 -68.32741 8015 ft 228 kts 268°
2026-04-16 23:53 18.69708 -68.34371 8015 ft 227 kts 248°
2026-04-16 23:54 18.69091 -68.35907 8016 ft 228 kts 247°
2026-04-16 23:54 18.68475 -68.37450 8023 ft 230 kts 247°
2026-04-16 23:54 18.67856 -68.39011 8017 ft 231 kts 247°
2026-04-16 23:54 18.67293 -68.40594 8013 ft 231 kts 255°
2026-04-16 23:55 18.66885 -68.42246 7755 ft 237 kts 255°
2026-04-16 23:55 18.66463 -68.43938 7260 ft 246 kts 255°
2026-04-16 23:55 18.66019 -68.45705 6897 ft 249 kts 255°
2026-04-16 23:55 18.65579 -68.47459 6634 ft 247 kts 255°
2026-04-16 23:56 18.65140 -68.49203 6349 ft 245 kts 255°
2026-04-16 23:56 18.64702 -68.50935 6047 ft 243 kts 255°
2026-04-16 23:56 18.64269 -68.52651 5549 ft 242 kts 255°
2026-04-16 23:56 18.63689 -68.54293 5131 ft 236 kts 235°
2026-04-16 23:57 18.62526 -68.55424 4883 ft 225 kts 206°
2026-04-16 23:57 18.61044 -68.55815 4552 ft 226 kts 178°
2026-04-16 23:57 18.59464 -68.55682 4174 ft 230 kts 174°
2026-04-16 23:57 18.57862 -68.55524 3797 ft 233 kts 173°
2026-04-16 23:58 18.56344 -68.54975 3427 ft 234 kts 141°
2026-04-16 23:58 18.55423 -68.53596 3101 ft 233 kts 105°
2026-04-16 23:58 18.55403 -68.51928 2762 ft 226 kts 80°
2026-04-16 23:58 18.55611 -68.50321 2437 ft 218 kts 84°
2026-04-16 23:59 18.55744 -68.48761 2132 ft 211 kts 85°
2026-04-16 23:59 18.55858 -68.47243 1847 ft 202 kts 85°
2026-04-16 23:59 18.55912 -68.45831 1647 ft 185 kts 89°
2026-04-16 23:59 18.55983 -68.44509 1355 ft 176 kts 84°
2026-04-17 00:00 18.56117 -68.43274 1106 ft 167 kts 83°
2026-04-17 00:00 18.56211 -68.42108 915 ft 154 kts 86°
2026-04-17 00:00 18.56316 -68.41035 701 ft 143 kts 83°
2026-04-17 00:00 18.56404 -68.40014 522 ft 138 kts 84°
2026-04-17 00:01 18.56496 -68.39009 312 ft 137 kts 84°
2026-04-17 00:01 18.56588 -68.38017 139 ft 137 kts 84°
2026-04-17 00:01 18.56673 -68.37057 55 ft 117 kts 84°
2026-04-17 00:01 18.56725 -68.36487 53 ft 27 kts 84°
2026-04-17 00:02 18.56644 -68.36419 51 ft 18 kts 174°
2026-04-17 00:02 18.56529 -68.36406 50 ft 15 kts 170°
2026-04-17 00:02 18.56458 -68.36413 50 ft 10 kts 216°
2026-04-17 00:02 18.56412 -68.36446 50 ft 9 kts 175°
2026-04-17 00:03 18.56377 -68.36442 50 ft 3 kts 175°
2026-04-17 00:03 18.56372 -68.36442 50 ft 0 kts 175°